When you browse on this site, cookies collect data to enhance your experience and personalize the content and advertising you see.
Visit our Privacy Policy to learn more. By continuing to use the site, you agree to this use of cookies and data.
  • In Denmark
  • List of Countries
  • For 7 days
  • Water Temperature
  • Satellite Maps
  • Weather Map
  • Weather Widgets
  • user-avatar
    Login

    Hourly Weather Kalgoorlie

    Today, 19 February, Tuesday

    Time Temperature Precipitation Wind Pressure Humidity
    00:00 +26°C° 0 mm 7 mps 729 mmHg 32%
    01:00 +24°C° 0 mm 7 mps 729 mmHg 36%
    02:00 +23°C° 0 mm 8 mps 729 mmHg 40%
    03:00 +22°C° 0 mm 7 mps 729 mmHg 44%
    04:00 +22°C° 0 mm 7 mps 729 mmHg 48%
    05:00 +21°C° 0 mm 7 mps 729 mmHg 52%
    06:00 +22°C° 0 mm 7 mps 729 mmHg 51%
    07:00 +22°C° 0 mm 7 mps 730 mmHg 50%
    08:00 +23°C° 0 mm 6 mps 730 mmHg 48%
    09:00 +26°C° 0 mm 6 mps 730 mmHg 42%
    10:00 +28°C° 0 mm 6 mps 730 mmHg 35%
    11:00 +32°C° 0 mm 6 mps 730 mmHg 29%
    12:00 +33°C° 0 mm 5 mps 730 mmHg 27%
    13:00 +34°C° 0 mm 5 mps 729 mmHg 25%
    14:00 +35°C° 0 mm 4 mps 729 mmHg 22%
    15:00 +35°C° 0 mm 4 mps 729 mmHg 22%
    16:00 +36°C° 0 mm 3 mps 728 mmHg 21%
    17:00 +36°C° 0 mm 3 mps 728 mmHg 21%
    18:00 +35°C° 0 mm 4 mps 728 mmHg 22%
    19:00 +34°C° 0 mm 5 mps 729 mmHg 22%
    20:00 +33°C° 0 mm 6 mps 729 mmHg 23%
    21:00 +32°C° 0 mm 7 mps 729 mmHg 23%
    22:00 +31°C° 0 mm 9 mps 729 mmHg 23%
    23:00 +29°C° 0 mm 10 mps 729 mmHg 23%

    Tomorrow, 20 February, Wednesday

    Time Temperature Precipitation Wind Pressure Humidity
    00:00 +29°C° 0 mm 9 mps 729 mmHg 23%
    01:00 +28°C° 0 mm 9 mps 729 mmHg 23%
    02:00 +27°C° 0 mm 8 mps 729 mmHg 24%
    03:00 +26°C° 0.1 mm 8 mps 729 mmHg 29%
    04:00 +24°C° 0.1 mm 7 mps 729 mmHg 35%
    05:00 +23°C° 0.1 mm 7 mps 729 mmHg 41%
    06:00 +24°C° 0.2 mm 7 mps 729 mmHg 41%
    07:00 +26°C° 0.2 mm 7 mps 730 mmHg 41%
    08:00 +26°C° 0.2 mm 7 mps 730 mmHg 41%
    09:00 +28°C° 0.3 mm 8 mps 730 mmHg 37%
    10:00 +31°C° 0.3 mm 8 mps 730 mmHg 33%
    11:00 +33°C° 0.3 mm 9 mps 730 mmHg 30%
    12:00 +34°C° 0.3 mm 9 mps 729 mmHg 28%
    13:00 +35°C° 0.3 mm 9 mps 729 mmHg 26%
    14:00 +37°C° 0.3 mm 9 mps 728 mmHg 24%
    15:00 +37°C° 0 mm 9 mps 727 mmHg 24%
    16:00 +38°C° 0 mm 9 mps 727 mmHg 23%
    17:00 +38°C° 0 mm 8 mps 726 mmHg 22%
    18:00 +37°C° 0 mm 9 mps 726 mmHg 23%
    19:00 +35°C° 0 mm 9 mps 726 mmHg 24%
    20:00 +34°C° 0 mm 9 mps 726 mmHg 25%
    21:00 +33°C° 0 mm 9 mps 726 mmHg 25%
    22:00 +33°C° 0 mm 9 mps 726 mmHg 25%
    23:00 +32°C° 0 mm 9 mps 727 mmHg 24%

    Day after tomorrow, 21 February, Thursday

    Time Temperature Precipitation Wind Pressure Humidity
    00:00 +31°C° 0 mm 8 mps 727 mmHg 24%
    01:00 +31°C° 0 mm 8 mps 726 mmHg 24%
    02:00 +29°C° 0 mm 7 mps 726 mmHg 23%
    03:00 +28°C° 0 mm 7 mps 726 mmHg 23%
    04:00 +28°C° 0 mm 6 mps 727 mmHg 23%
    05:00 +27°C° 0 mm 6 mps 727 mmHg 23%
    06:00 +29°C° 0 mm 7 mps 727 mmHg 22%
    07:00 +31°C° 0 mm 8 mps 727 mmHg 21%
    08:00 +32°C° 0 mm 9 mps 728 mmHg 19%
    09:00 +35°C° 0 mm 8 mps 728 mmHg 18%
    10:00 +38°C° 0 mm 8 mps 728 mmHg 16%
    11:00 +40°C° 0 mm 7 mps 728 mmHg 14%
    12:00 +41°C° 0 mm 7 mps 727 mmHg 12%
    13:00 +44°C° 0 mm 6 mps 727 mmHg 10%
    14:00 +45°C° 0 mm 6 mps 726 mmHg 8%
    15:00 +44°C° 0 mm 6 mps 726 mmHg 8%
    16:00 +44°C° 0 mm 6 mps 725 mmHg 8%
    17:00 +44°C° 0 mm 6 mps 725 mmHg 7%
    18:00 +41°C° 0 mm 5 mps 725 mmHg 8%
    19:00 +40°C° 0 mm 4 mps 726 mmHg 9%
    20:00 +37°C° 0 mm 4 mps 726 mmHg 11%
    21:00 +36°C° 0 mm 4 mps 727 mmHg 12%
    22:00 +34°C° 0 mm 4 mps 727 mmHg 14%
    23:00 +33°C° 0 mm 4 mps 727 mmHg 16%

    22 February, Friday

    Time Temperature Precipitation Wind Pressure Humidity
    00:00 +32°C° 0 mm 4 mps 727 mmHg 18%
    01:00 +30°C° 0 mm 4 mps 727 mmHg 20%
    02:00 +29°C° 0 mm 4 mps 726 mmHg 22%
    03:00 +28°C° 0 mm 4 mps 726 mmHg 30%
    04:00 +27°C° 0 mm 4 mps 726 mmHg 37%
    05:00 +26°C° 0 mm 4 mps 726 mmHg 45%
    06:00 +28°C° 0 mm 3 mps 727 mmHg 40%
    07:00 +29°C° 0 mm 3 mps 728 mmHg 36%
    08:00 +31°C° 0 mm 3 mps 728 mmHg 31%
    09:00 +34°C° 0 mm 3 mps 728 mmHg 25%
    10:00 +37°C° 0 mm 3 mps 728 mmHg 18%
    11:00 +41°C° 0 mm 4 mps 728 mmHg 12%
    12:00 +42°C° 0 mm 4 mps 728 mmHg 11%
    13:00 +43°C° 0 mm 5 mps 727 mmHg 9%
    14:00 +45°C° 0 mm 6 mps 726 mmHg 8%
    15:00 +45°C° 0 mm 6 mps 726 mmHg 8%
    16:00 +45°C° 0 mm 6 mps 726 mmHg 8%
    17:00 +45°C° 0 mm 7 mps 726 mmHg 8%
    18:00 +44°C° 0 mm 6 mps 726 mmHg 9%
    19:00 +41°C° 0 mm 5 mps 727 mmHg 10%
    20:00 +40°C° 0 mm 4 mps 727 mmHg 10%
    21:00 +38°C° 0 mm 3 mps 727 mmHg 12%
    22:00 +37°C° 0 mm 2 mps 727 mmHg 13%
    23:00 +35°C° 0 mm 1 mps 727 mmHg 14%

    23 February, Saturday

    Time Temperature Precipitation Wind Pressure Humidity
    00:00 +35°C° 0 mm 2 mps 727 mmHg 14%
    01:00 +34°C° 0 mm 2 mps 726 mmHg 15%
    02:00 +33°C° 0 mm 3 mps 726 mmHg 15%
    03:00 +33°C° 0 mm 3 mps 726 mmHg 16%
    04:00 +31°C° 0 mm 2 mps 726 mmHg 17%
    05:00 +31°C° 0 mm 2 mps 727 mmHg 18%
    06:00 +33°C° 0 mm 3 mps 727 mmHg 18%
    07:00 +34°C° 0 mm 3 mps 728 mmHg 18%
    08:00 +35°C° 0 mm 4 mps 728 mmHg 17%
    09:00 +37°C° 0 mm 3 mps 728 mmHg 16%
    10:00 +39°C° 0 mm 3 mps 728 mmHg 14%
    11:00 +40°C° 0 mm 3 mps 728 mmHg 13%
    12:00 +42°C° 0 mm 3 mps 728 mmHg 12%
    13:00 +42°C° 0 mm 2 mps 728 mmHg 11%
    14:00 +43°C° 0 mm 2 mps 727 mmHg 11%
    15:00 +43°C° 0 mm 3 mps 727 mmHg 11%
    16:00 +43°C° 0 mm 4 mps 728 mmHg 12%
    17:00 +42°C° 0 mm 5 mps 728 mmHg 12%
    18:00 +41°C° 0 mm 5 mps 728 mmHg 15%
    19:00 +38°C° 0 mm 4 mps 728 mmHg 17%
    20:00 +37°C° 0 mm 4 mps 729 mmHg 20%
    21:00 +36°C° 0 mm 3 mps 728 mmHg 22%
    22:00 +35°C° 0 mm 2 mps 728 mmHg 24%
    23:00 +33°C° 0 mm 1 mps 728 mmHg 26%

    24 February, Sunday

    Time Temperature Precipitation Wind Pressure Humidity
    00:00 +34°C° 0 mm 2 mps 728 mmHg 24%
    01:00 +32°C° 0 mm 2 mps 728 mmHg 22%
    02:00 +33°C° 0 mm 3 mps 727 mmHg 20%
    03:00 +33°C° 0 mm 3 mps 728 mmHg 23%
    04:00 +31°C° 0 mm 3 mps 728 mmHg 26%
    05:00 +31°C° 0 mm 3 mps 728 mmHg 30%
    06:00 +32°C° 0 mm 4 mps 729 mmHg 30%
    07:00 +33°C° 0 mm 4 mps 729 mmHg 30%
    08:00 +34°C° 0 mm 4 mps 730 mmHg 30%
    09:00 +35°C° 0 mm 3 mps 730 mmHg 27%
    10:00 +37°C° 0 mm 3 mps 729 mmHg 23%
    11:00 +38°C° 0 mm 2 mps 729 mmHg 19%
    12:00 +40°C° 0 mm 3 mps 728 mmHg 17%
    13:00 +42°C° 0 mm 3 mps 728 mmHg 15%
    14:00 +43°C° 0 mm 4 mps 727 mmHg 13%
    15:00 +43°C° 0 mm 4 mps 727 mmHg 13%
    16:00 +43°C° 0 mm 3 mps 727 mmHg 12%
    17:00 +43°C° 0 mm 3 mps 726 mmHg 12%
    18:00 +41°C° 0 mm 2 mps 727 mmHg 14%
    19:00 +39°C° 0 mm 2 mps 727 mmHg 16%
    20:00 +36°C° 0 mm 1 mps 727 mmHg 17%
    21:00 +36°C° 0 mm 3 mps 728 mmHg 21%
    22:00 +35°C° 0 mm 5 mps 728 mmHg 24%
    23:00 +34°C° 0 mm 7 mps 728 mmHg 28%
    Show more